[[{"header":{"parameterUnit":"m.s-1","parameterCategory":2,"la1":30.2992,"la2":30.254,"lo1":-89.0895,"lo2":-89.0443,"dy":0.0025,"dx":0.0025,"nx":19,"ny":19,"refTime":"2026-05-07T21:00:00:Z","depth":"0","parameterNumber":2,"parameterNumberName":"U-component_of_CURRENTS"},"data":[0,0,0,0.2149,0.215,0.2183,0.2183,0.2174,0.2173,0,0,0,0,0,0,0,0,0,0,0,0.2127,0.2127,0.2149,0.215,0.2183,0.2183,0.2174,0.2173,0,0,0,0,0,0,0,0,0,0,0,0.2127,0.2127,0.2127,0.215,0.2183,0.2183,0.2174,0.2162,0,0,0,0,0,0,0,0,0,0,0.2137,0.2124,0.2127,0.2127,0.215,0.2183,0.2183,0.2162,0.2163,0.2143,0,0.2139,0,0.2158,0.2171,0.2171,0,0,0,0.2153,0.2124,0.2132,0.2127,0.2151,0.2183,0.2169,0.2163,0.2164,0.2143,0.2139,0.214,0.2157,0.2171,0.2171,0.2139,0.2139,0,0,0.2151,0.2135,0.2132,0.2132,0.2146,0.2168,0.217,0.2164,0.2158,0.2139,0.214,0.2157,0.2171,0.2171,0.2139,0.2139,0,0,0,0.2144,0.2134,0.2144,0.2132,0.2143,0.2169,0.2171,0.2158,0.2161,0.214,0.2157,0.2171,0.217,0.2139,0.2139,0.2161,0,0,0,0.2143,0.213,0.2142,0.2134,0.2143,0.2159,0.2165,0.2161,0.2162,0.2157,0.2171,0.217,0.2139,0.2139,0.216,0.215,0,0,0,0.2128,0.2129,0.2128,0.2133,0.2147,0.216,0.2163,0.2162,0.2172,0.2171,0.217,0.2139,0.2139,0.216,0.215,0.2183,0,0,0,0.2117,0.2114,0.2128,0.2131,0.2147,0.2173,0.2164,0.2171,0.217,0.2171,0.2139,0.2139,0.216,0.215,0.2182,0.2293,0.2304,0,0,0.2111,0.2113,0.2118,0.2131,0.2157,0.217,0.2186,0.2172,0.2158,0.2138,0.2138,0.216,0.215,0.2183,0.2277,0.2289,0,0,0,0.2115,0.2122,0.2129,0.2149,0.2166,0.2173,0.2184,0.2176,0.216,0.2156,0.2149,0.214,0.2161,0.2226,0.2236,0.2145,0.2138,0.2138,0.2138,0.2102,0.2124,0.213,0.2155,0.2168,0.218,0.2178,0.2167,0.2166,0.2155,0.2151,0.2175,0.2244,0.2252,0.2156,0.2152,0.2152,0.2152,0.2152,0.2102,0.2094,0.2126,0.2136,0.2145,0.2158,0.2166,0.2165,0.2171,0.2154,0.2175,0.2235,0.2264,0.2158,0.2153,0.2153,0.2153,0.2153,0.2153,0.2085,0.2073,0.2089,0.2097,0.2103,0.2124,0.2137,0.2147,0.2173,0.2184,0.2278,0.2279,0.2194,0.2212,0.2212,0.2213,0.2213,0.2213,0.2213,0.2031,0.2047,0.203,0.2048,0.2046,0.2067,0.2113,0.2158,0.2256,0.2294,0.2296,0.2191,0.2193,0.2201,0.2214,0.2214,0.2214,0.2214,0.2214,0.197,0.1977,0.1954,0.1948,0.1956,0.1982,0.208,0.2251,0.2314,0.2395,0.2325,0.2366,0.2371,0.2365,0.2376,0.2434,0.2434,0.2434,0.2434,0.1911,0.192,0.1866,0.1842,0.1857,0.1925,0.2044,0.2222,0.2362,0.2391,0.236,0.2355,0.235,0.235,0.2344,0.2353,0.2403,0.2403,0.2403,0.1851,0.1849,0.1787,0.1776,0.1794,0.1876,0.1977,0.2113,0.2319,0.2384,0.2204,0.2206,0.2176,0.2177,0.216,0.2159,0.2167,0,0]},{"header":{"parameterUnit":"m.s-1","parameterCategory":2,"la1":30.2992,"la2":30.254,"lo1":-89.0895,"lo2":-89.0443,"dy":0.0025,"dx":0.0025,"nx":19,"ny":19,"refTime":"2026-05-07T21:00:00:Z","depth":"0","parameterNumber":3,"parameterNumberName":"V-component_of_CURRENTS"},"data":[0,0,0,-0.1423,-0.1424,-0.1487,-0.1488,-0.1466,-0.1465,0,0,0,0,0,0,0,0,0,0,0,-0.1397,-0.1397,-0.1423,-0.1424,-0.1487,-0.1488,-0.1466,-0.1465,0,0,0,0,0,0,0,0,0,0,0,-0.1397,-0.1397,-0.1397,-0.1424,-0.1487,-0.1488,-0.1466,-0.1449,0,0,0,0,0,0,0,0,0,0,-0.1403,-0.1391,-0.1397,-0.1397,-0.1424,-0.1487,-0.1488,-0.145,-0.145,-0.14,0,-0.1393,0,-0.1416,-0.1459,-0.1459,0,0,0,-0.1447,-0.1391,-0.1397,-0.1397,-0.1424,-0.1487,-0.1465,-0.1451,-0.1451,-0.14,-0.1393,-0.1393,-0.1416,-0.1458,-0.1458,-0.1366,-0.1366,0,0,-0.1443,-0.1422,-0.1397,-0.1397,-0.1415,-0.1463,-0.1467,-0.1453,-0.1445,-0.1393,-0.1394,-0.1415,-0.1458,-0.1457,-0.1366,-0.1366,0,0,0,-0.1418,-0.1419,-0.1429,-0.1397,-0.1409,-0.1464,-0.1469,-0.1447,-0.1446,-0.1394,-0.1415,-0.1457,-0.1456,-0.1367,-0.1366,-0.1286,0,0,0,-0.1417,-0.1402,-0.1426,-0.1417,-0.141,-0.1444,-0.1462,-0.1448,-0.1447,-0.1415,-0.1457,-0.1455,-0.1367,-0.1367,-0.1289,-0.1221,0,0,0,-0.1399,-0.1401,-0.1399,-0.1415,-0.1432,-0.1445,-0.1447,-0.1449,-0.1458,-0.1458,-0.1455,-0.1367,-0.1367,-0.1292,-0.1227,-0.1121,0,0,0,-0.139,-0.1358,-0.1398,-0.1357,-0.143,-0.143,-0.1448,-0.146,-0.1461,-0.1457,-0.1367,-0.1366,-0.1293,-0.1231,-0.1126,-0.0891,-0.0851,0,0,-0.1341,-0.1352,-0.1323,-0.136,-0.1336,-0.1425,-0.1387,-0.1403,-0.1428,-0.1369,-0.1368,-0.1288,-0.1228,-0.1122,-0.0845,-0.0805,0,0,0,-0.1302,-0.1293,-0.1289,-0.1282,-0.1298,-0.1298,-0.1347,-0.1361,-0.1346,-0.142,-0.1294,-0.1258,-0.1194,-0.1063,-0.1032,-0.0999,-0.1363,-0.1363,-0.1363,-0.1219,-0.1226,-0.12,-0.1208,-0.1192,-0.1221,-0.1216,-0.1239,-0.1279,-0.1268,-0.1199,-0.1069,-0.0931,-0.0904,-0.0875,-0.1223,-0.1223,-0.1223,-0.1223,-0.117,-0.1148,-0.115,-0.114,-0.1116,-0.1091,-0.1067,-0.1098,-0.1041,-0.1128,-0.107,-0.0993,-0.0864,-0.0846,-0.1218,-0.1219,-0.1219,-0.122,-0.122,-0.1132,-0.1122,-0.1136,-0.1102,-0.1046,-0.1014,-0.0896,-0.0924,-0.0939,-0.0891,-0.0725,-0.0724,-0.0697,-0.0855,-0.0854,-0.0853,-0.0853,-0.0852,-0.0852,-0.1082,-0.1095,-0.1068,-0.1054,-0.1002,-0.0907,-0.0804,-0.0716,-0.0588,-0.0583,-0.0582,-0.0625,-0.0955,-0.0958,-0.084,-0.0842,-0.0844,-0.0845,-0.0846,-0.101,-0.1017,-0.0982,-0.0946,-0.083,-0.0623,-0.0568,-0.0272,-0.0215,-0.0088,-0.0172,-0.0413,-0.0399,-0.0423,-0.0412,-0.016,-0.016,-0.016,-0.016,-0.0935,-0.0944,-0.0864,-0.0775,-0.0634,-0.0472,-0.0035,0.0196,0.0261,0.0279,0.0123,0.0073,0.0044,0.0075,0.004,0.0055,0.0421,0.0421,0.0421,-0.086,-0.0859,-0.0765,-0.0701,-0.0532,-0.0237,0.0261,0.0668,0.0653,0.0434,0.0124,0.01,0.0,-0.0048,-0.0031,-0.0083,-0.0071,0,0]}],[{"header":{"parameterUnit":"m.s-1","parameterCategory":2,"la1":30.2992,"la2":30.254,"lo1":-89.0895,"lo2":-89.0443,"dy":0.0025,"dx":0.0025,"nx":19,"ny":19,"refTime":"2026-05-07T21:00:00:Z","depth":"2","parameterNumber":2,"parameterNumberName":"U-component_of_CURRENTS"},"data":[0,0,0,0.2732,0.2731,0.2777,0.2778,0.2814,0.2814,0,0,0,0,0,0,0,0,0,0,0,0.2739,0.2738,0.2732,0.2731,0.2777,0.2778,0.2814,0.2814,0,0,0,0,0,0,0,0,0,0,0,0.2739,0.2738,0.2738,0.2731,0.2776,0.2778,0.2814,0.28,0,0,0,0,0,0,0,0,0,0,0.2764,0.2753,0.2739,0.2738,0.273,0.2776,0.2778,0.28,0.2801,0.2768,0,0.2749,0,0.2742,0.281,0.281,0,0,0,0.2792,0.2753,0.2746,0.2738,0.273,0.2776,0.2773,0.2801,0.2802,0.2768,0.2749,0.275,0.2743,0.281,0.2809,0.2698,0.2698,0,0,0.2789,0.2772,0.2746,0.2745,0.2705,0.2771,0.2774,0.2802,0.2796,0.2749,0.2751,0.2743,0.2809,0.2809,0.2699,0.2698,0,0,0,0.2741,0.277,0.2766,0.2745,0.2732,0.2771,0.2774,0.2797,0.2789,0.2751,0.2744,0.2809,0.2808,0.27,0.2699,0.2682,0,0,0,0.2742,0.2737,0.2764,0.2758,0.273,0.2765,0.2768,0.279,0.2791,0.2744,0.2809,0.2808,0.2701,0.2699,0.2685,0.2671,0,0,0,0.2743,0.2737,0.2728,0.2756,0.2744,0.2764,0.2763,0.2792,0.2783,0.281,0.2808,0.2701,0.27,0.2687,0.2675,0.2663,0,0,0,0.2748,0.2707,0.2728,0.2699,0.2743,0.2718,0.2764,0.276,0.2777,0.2809,0.2701,0.2699,0.2688,0.2677,0.2665,0.2659,0.265,0,0,0.2698,0.2701,0.269,0.2708,0.2682,0.2718,0.2686,0.2725,0.2736,0.2702,0.2701,0.2684,0.2675,0.2663,0.2547,0.2542,0,0,0,0.2677,0.2678,0.2667,0.267,0.2651,0.2662,0.2674,0.2667,0.2673,0.2723,0.2649,0.2643,0.2637,0.2636,0.2631,0.269,0.269,0.269,0.269,0.2615,0.2644,0.2628,0.2652,0.2633,0.2614,0.2613,0.2605,0.2606,0.2594,0.2605,0.2547,0.2543,0.254,0.2578,0.2578,0.2578,0.2578,0.2578,0.2599,0.261,0.2634,0.263,0.262,0.2592,0.2553,0.2556,0.2523,0.2543,0.2539,0.2586,0.2534,0.2576,0.2576,0.2577,0.2577,0.2577,0.2577,0.2607,0.2606,0.2612,0.2599,0.2577,0.2548,0.25,0.2483,0.2504,0.2497,0.2501,0.2502,0.2561,0.2498,0.2497,0.2497,0.2497,0.2497,0.2497,0.2598,0.2599,0.2552,0.2545,0.2501,0.2466,0.2446,0.2456,0.2465,0.2466,0.2467,0.252,0.2523,0.2554,0.2495,0.2495,0.2496,0.2496,0.2496,0.2576,0.2541,0.2475,0.242,0.2344,0.2275,0.232,0.2379,0.2411,0.2443,0.2454,0.2456,0.2463,0.2467,0.2495,0.2424,0.2424,0.2424,0.2424,0.2516,0.2512,0.2355,0.2243,0.2173,0.2168,0.2092,0.2058,0.2173,0.211,0.2122,0.2115,0.2128,0.2115,0.2127,0.2148,0.1986,0.1984,0.1983,0.2437,0.2418,0.226,0.2168,0.2079,0.2055,0.1894,0.1646,0.1657,0.1953,0.1913,0.2421,0.2449,0.2453,0.2467,0.2473,0.2521,0,0]},{"header":{"parameterUnit":"m.s-1","parameterCategory":2,"la1":30.2992,"la2":30.254,"lo1":-89.0895,"lo2":-89.0443,"dy":0.0025,"dx":0.0025,"nx":19,"ny":19,"refTime":"2026-05-07T21:00:00:Z","depth":"2","parameterNumber":3,"parameterNumberName":"V-component_of_CURRENTS"},"data":[0,0,0,0.0153,0.0143,-0.0186,-0.0186,-0.0247,-0.0248,0,0,0,0,0,0,0,0,0,0,0,0.0306,0.0302,0.0154,0.0142,-0.0186,-0.0186,-0.0247,-0.0248,0,0,0,0,0,0,0,0,0,0,0,0.0308,0.0303,0.0298,0.014,-0.0186,-0.0186,-0.0247,-0.0063,0,0,0,0,0,0,0,0,0,0,0.0222,0.0257,0.0304,0.0298,0.0137,-0.0186,-0.0186,-0.0057,-0.0075,-0.0029,0,-0.0148,0,-0.026,-0.0254,-0.0254,0,0,0,0.0246,0.0271,0.0168,0.0297,0.0133,-0.0186,-0.0009,-0.0069,-0.0088,-0.0051,-0.015,-0.0157,-0.0261,-0.0254,-0.0255,-0.033,-0.033,0,0,0.0264,0.0283,0.018,0.0153,-0.0037,0.0001,-0.002,-0.0084,-0.0123,-0.0151,-0.0161,-0.0262,-0.0255,-0.0255,-0.033,-0.033,0,0,0,0.0246,0.0295,0.019,0.0161,0.0036,-0.0011,-0.0035,-0.0118,-0.0162,-0.0163,-0.0262,-0.0255,-0.0256,-0.0329,-0.033,-0.0319,0,0,0,0.0262,0.0276,0.0197,0.0212,0.0033,-0.0105,-0.0068,-0.0154,-0.0169,-0.0262,-0.0255,-0.0257,-0.0329,-0.033,-0.0319,-0.0238,0,0,0,0.0336,0.0284,0.0217,0.0212,0.0014,-0.0108,-0.0151,-0.016,-0.0233,-0.0254,-0.0257,-0.0329,-0.033,-0.0318,-0.0241,-0.0185,0,0,0,0.0416,0.0313,0.0216,0.012,0.0016,-0.0128,-0.0152,-0.0238,-0.0258,-0.0256,-0.0329,-0.033,-0.0318,-0.0242,-0.0187,0.0065,0.0095,0,0,0.0361,0.0306,0.0275,0.0179,0.0046,-0.007,-0.0159,-0.0205,-0.0241,-0.0264,-0.0269,-0.0319,-0.0241,-0.0185,0.0036,0.0068,0,0,0,0.0315,0.0258,0.0212,0.0098,-0.0018,-0.0108,-0.0223,-0.0247,-0.0286,-0.0289,-0.0332,-0.0281,-0.0247,-0.0101,-0.0077,-0.0332,-0.0332,-0.0332,-0.0332,0.027,0.025,0.02,0.0126,0.004,-0.0138,-0.0156,-0.0214,-0.0291,-0.0305,-0.0286,-0.0243,-0.0092,-0.0069,-0.0341,-0.0341,-0.0341,-0.0341,-0.0341,0.0286,0.029,0.0253,0.0185,0.0083,-0.0022,-0.0101,-0.0172,-0.0185,-0.0262,-0.0233,-0.0112,-0.0041,-0.0341,-0.0341,-0.0341,-0.0341,-0.0341,-0.0341,0.0341,0.0335,0.0301,0.0244,0.0158,0.0021,0.0036,-0.0092,-0.0119,-0.0105,0.0033,0.0036,-0.0179,-0.0139,-0.0139,-0.0138,-0.0138,-0.0137,-0.0137,0.041,0.0388,0.031,0.0261,0.0211,0.0145,0.0056,0.0099,0.013,0.0132,0.0134,-0.0173,-0.0179,-0.0166,-0.0128,-0.013,-0.0131,-0.0132,-0.0132,0.0429,0.0368,0.0308,0.0249,0.0184,0.0328,0.0266,0.0455,0.0441,0.0572,0.0287,0.0274,0.032,0.0303,0.0328,0.0492,0.0492,0.0492,0.0492,0.0413,0.0383,0.0266,0.0214,0.0249,0.0391,0.0698,0.0806,0.0783,0.0706,0.0695,0.0666,0.064,0.0698,0.0671,0.0701,0.0962,0.0962,0.0962,0.0392,0.0361,0.0273,0.0195,0.0278,0.0544,0.0958,0.1065,0.0929,0.0965,0.0611,0.0556,0.0485,0.0453,0.0515,0.0482,0.052,0,0]}],[{"header":{"parameterUnit":"m.s-1","parameterCategory":2,"la1":30.2992,"la2":30.254,"lo1":-89.0895,"lo2":-89.0443,"dy":0.0025,"dx":0.0025,"nx":19,"ny":19,"refTime":"2026-05-07T21:00:00:Z","depth":"4","parameterNumber":2,"parameterNumberName":"U-component_of_CURRENTS"},"data":[0,0,0,0.0419,0.0421,0.0559,0.056,0.0769,0.0771,0,0,0,0,0,0,0,0,0,0,0,0.0388,0.0389,0.0419,0.0421,0.0559,0.056,0.0769,0.0771,0,0,0,0,0,0,0,0,0,0,0,0.0388,0.0389,0.039,0.0422,0.0559,0.056,0.0768,0.0662,0,0,0,0,0,0,0,0,0,0,0.0526,0.05,0.0389,0.039,0.0422,0.0559,0.056,0.0657,0.0669,0.0708,0,0.0729,0,0.0738,0.0783,0.0784,0,0,0,0.0445,0.049,0.0505,0.039,0.0423,0.0558,0.0504,0.0663,0.0677,0.0724,0.0732,0.0739,0.0742,0.0785,0.0785,0.0988,0.0989,0,0,0.0438,0.0439,0.0495,0.0513,0.0459,0.0499,0.0508,0.0671,0.07,0.0732,0.0744,0.0745,0.0786,0.0787,0.0988,0.0989,0,0,0,0.0399,0.0433,0.0445,0.0505,0.0518,0.0502,0.0512,0.0693,0.0691,0.0746,0.0747,0.0787,0.0789,0.0987,0.0988,0.1053,0,0,0,0.0396,0.0409,0.0441,0.0447,0.0515,0.0606,0.0531,0.068,0.0698,0.0746,0.0787,0.0791,0.0986,0.0987,0.1049,0.1037,0,0,0,0.0382,0.0408,0.0418,0.0446,0.049,0.0603,0.0612,0.0684,0.0698,0.0784,0.0791,0.0985,0.0987,0.1046,0.1033,0.107,0,0,0,0.0385,0.0396,0.0419,0.043,0.0488,0.0572,0.0611,0.0701,0.0775,0.0788,0.0986,0.0988,0.1045,0.103,0.1067,0.0852,0,0,0,0.0388,0.0398,0.0395,0.0416,0.0471,0.0555,0.067,0.0778,0.082,0.0936,0.0941,0.1051,0.1032,0.1069,0.097,0,0,0,0,0.0385,0.0401,0.0419,0.0457,0.0518,0.0652,0.0753,0.0819,0.0959,0.0867,0.1072,0.1058,0.1079,0.0948,0.0997,0.0997,0.0997,0.0997,0.0997,0.0406,0.0411,0.0449,0.0499,0.057,0.0736,0.0835,0.0954,0.1002,0.1076,0.113,0.122,0.1088,0.1171,0.1171,0.1172,0.1172,0.1172,0.1172,0.0409,0.0416,0.048,0.0526,0.0656,0.0784,0.0959,0.1033,0.1182,0.1198,0.1218,0.1048,0.1179,0.1178,0.1177,0.1176,0.1176,0.1175,0.1175,0.0393,0.0406,0.045,0.053,0.0683,0.0841,0.0954,0.111,0.1217,0.1269,0.1157,0.1255,0.1228,0.1321,0.1322,0.1322,0.1322,0.1322,0.1322,0.0356,0.0402,0.044,0.0549,0.0617,0.0749,0.0984,0.1044,0.1204,0.1181,0.131,0.1269,0.1264,0.1236,0.1324,0.1324,0.1324,0.1323,0.1323,0.0313,0.0356,0.0382,0.0435,0.0563,0.0633,0.0846,0.0965,0.1045,0.1056,0.1124,0.1133,0.1079,0.1078,0.1041,0.1074,0.1072,0.1069,0,0.029,0.031,0.0332,0.0362,0.0411,0.0558,0.0622,0.074,0.0886,0.0858,0.1029,0.1101,0.1108,0.1041,0.1037,0.0988,0,0,0,0.0274,0.0286,0.0266,0.0299,0.0342,0.0473,0.0631,0.0654,0.0864,0.0869,0.1008,0.1024,0.1144,0.1331,0.1269,0.1263,0.1214,0,0]},{"header":{"parameterUnit":"m.s-1","parameterCategory":2,"la1":30.2992,"la2":30.254,"lo1":-89.0895,"lo2":-89.0443,"dy":0.0025,"dx":0.0025,"nx":19,"ny":19,"refTime":"2026-05-07T21:00:00:Z","depth":"4","parameterNumber":3,"parameterNumberName":"V-component_of_CURRENTS"},"data":[0,0,0,0.066,0.0662,0.0751,0.0752,0.0758,0.0758,0,0,0,0,0,0,0,0,0,0,0,0.0642,0.0643,0.066,0.0662,0.0751,0.0752,0.0758,0.0758,0,0,0,0,0,0,0,0,0,0,0,0.0642,0.0643,0.0644,0.0662,0.0751,0.0752,0.0758,0.072,0,0,0,0,0,0,0,0,0,0,0.0648,0.0667,0.0642,0.0644,0.0663,0.0751,0.0752,0.072,0.0723,0.0683,0,0.0705,0,0.0718,0.0755,0.0754,0,0,0,0.0673,0.0665,0.066,0.0644,0.0663,0.0751,0.0714,0.0722,0.0725,0.0686,0.0705,0.0706,0.0718,0.0754,0.0754,0.0772,0.0773,0,0,0.0668,0.0682,0.0659,0.0663,0.0693,0.0711,0.0717,0.0726,0.0745,0.0705,0.0706,0.0718,0.0754,0.0754,0.0772,0.0772,0,0,0,0.0647,0.0678,0.0677,0.0662,0.0679,0.0713,0.072,0.0746,0.0738,0.0707,0.0718,0.0754,0.0753,0.0771,0.0772,0.0849,0,0,0,0.0644,0.0664,0.0675,0.0687,0.068,0.0734,0.074,0.0738,0.074,0.0718,0.0754,0.0753,0.0771,0.0772,0.0846,0.086,0,0,0,0.0637,0.0664,0.067,0.0687,0.0716,0.0734,0.073,0.074,0.0745,0.0754,0.0753,0.077,0.0771,0.0843,0.0855,0.0827,0,0,0,0.0651,0.0675,0.0672,0.0703,0.0715,0.0771,0.073,0.0777,0.0794,0.0754,0.0771,0.0772,0.0842,0.0853,0.0826,0.0731,0,0,0,0.068,0.068,0.0692,0.0689,0.075,0.0759,0.0816,0.0814,0.0795,0.076,0.0762,0.0847,0.0855,0.0827,0.0808,0,0,0,0,0.0698,0.072,0.0737,0.0772,0.0798,0.084,0.0849,0.0844,0.0854,0.0808,0.0851,0.0854,0.0833,0.0774,0.0778,0.0778,0.0778,0.0778,0.0778,0.076,0.0761,0.0806,0.0822,0.0857,0.09,0.0915,0.0907,0.0895,0.0913,0.0921,0.0958,0.0902,0.0935,0.0936,0.0936,0.0936,0.0936,0.0937,0.0797,0.0806,0.0841,0.0894,0.0926,0.0987,0.0974,0.0978,0.0972,0.0976,0.0953,0.0867,0.0944,0.0943,0.0942,0.0941,0.094,0.094,0.0939,0.0807,0.0812,0.0864,0.0928,0.1022,0.1061,0.1078,0.1082,0.1035,0.1036,0.0943,0.0982,0.0966,0.1039,0.1039,0.1039,0.1039,0.1039,0.1039,0.0783,0.0827,0.088,0.0973,0.1059,0.1124,0.1171,0.1122,0.1082,0.0999,0.1065,0.099,0.0987,0.097,0.1038,0.1038,0.1038,0.1038,0.1038,0.0762,0.0797,0.0871,0.0953,0.1107,0.1135,0.1195,0.1079,0.1023,0.0911,0.0943,0.0948,0.0891,0.0889,0.0867,0.0907,0.0906,0.0905,0,0.0746,0.076,0.0865,0.0976,0.1047,0.1137,0.1052,0.1,0.0907,0.0899,0.0978,0.1019,0.102,0.0961,0.0957,0.0934,0,0,0,0.0732,0.0778,0.0836,0.0952,0.105,0.1005,0.1017,0.0968,0.095,0.0839,0.0879,0.0886,0.098,0.1037,0.096,0.0956,0.0924,0,0]}]]